Change the Weather History Date:

Wednesday, March 6, 2013

  Actual Average Record
Temperature  
Mean Temperature 50 °F -  
Max Temperature 53 °F - - ()
Min Temperature 48 °F - - ()
Degree Days  
Heating Degree Days 14    
Moisture  
Dew Point 49 °F    
Average Humidity 93    
Maximum Humidity 100    
Minimum Humidity 82    
Precipitation  
Precipitation 0.47 in - - ()
Sea Level Pressure  
Sea Level Pressure 29.93 in    
Wind  
Wind Speed 6 mph ()    
Max Wind Speed 10 mph    
Max Gust Speed 24 mph    
Visibility 5.3 miles    
Events Rain    
T = Trace of Precipitation, MM = Missing Value Source: Averaged Metar Reports

Daily Weather History Graph

Daily Weather History Graph

Search for Another Location

Airport or City:

Trip Planner

Search our weather history database for the weather conditions in past years. The results will help you decide how hot, cold, wet, or windy it might be!

Date:

Astronomy

Mar. 06, 2013 Rise Set
Actual Time 6:33 AM CET 5:58 PM CET
Civil Twilight 6:03 AM CET 6:27 PM CET
Nautical Twilight 5:30 AM CET 7:01 PM CET
Astronomical Twilight 4:55 AM CET 7:35 PM CET
Moon 2:37 AM CET 12:10 PM CET
Length of Visible Light 12h 23m
Length of Day
11h 25m
Waning Crescent, 33% of the Moon is Illuminated
Mar 6
Waning Crescent
Mar 11
New
Mar 19
First Quarter
Mar 27
Full
Apr 3
Last Quarter

Hourly Weather History & Observations

Time (CET) Temp. Dew Point Humidity Pressure Visibility Wind Dir Wind Speed Gust Speed Precip Events Conditions
12:00 AM 51.8 °F 46.4 °F 82% 30.09 in 6.2 mi East 9.2 mph - N/A   Mostly Cloudy
12:30 AM 51.8 °F 46.4 °F 82% 30.09 in 6.2 mi East 4.6 mph - N/A   Mostly Cloudy
1:00 AM 51 °F 47 °F 83% 30.10 in 9 mi ESE 6.7 mph - - Rain Light Rain
1:00 AM 51.8 °F 48.2 °F 88% 30.09 in 6.2 mi ESE 6.9 mph - N/A Rain Light Rain
1:30 AM 50.0 °F 46.4 °F 87% 30.06 in 6.2 mi ESE 6.9 mph - N/A Rain Light Rain
2:00 AM 50.0 °F 46.4 °F 87% 30.06 in 6.2 mi ESE 4.6 mph - N/A Rain Light Rain
2:30 AM 50.0 °F 46.4 °F 87% 30.04 in 6.2 mi East 4.6 mph - N/A Rain Light Rain
3:00 AM 50.0 °F 48.2 °F 94% 30.04 in 6.2 mi ESE 5.8 mph - N/A Rain Light Rain
3:30 AM 50.0 °F 48.2 °F 94% 30.04 in 6.2 mi SE 5.8 mph - N/A Rain Light Rain
4:00 AM 51 °F 48 °F 87% 30.05 in 9 mi SSE 4.5 mph - - Rain Light Rain
4:00 AM 50.0 °F 48.2 °F 94% 30.04 in 6.2 mi SSE 4.6 mph - N/A Rain Light Rain
4:30 AM 50.0 °F 48.2 °F 94% 30.04 in 6.2 mi Variable 3.5 mph - N/A   Mostly Cloudy
5:00 AM 50 °F 48 °F 90% 30.04 in 9 mi SSE 4.5 mph - - Rain Light Rain
5:00 AM 50.0 °F 48.2 °F 94% 30.04 in 6.2 mi SSE 4.6 mph - N/A   Scattered Clouds
5:30 AM 50.0 °F 48.2 °F 94% 30.04 in 6.2 mi Variable 2.3 mph - N/A   Mostly Cloudy
6:00 AM 50 °F 47 °F 88% 30.04 in 9 mi SW 4.5 mph - - Rain Light Rain
6:00 AM 50.0 °F 48.2 °F 94% 30.01 in 6.2 mi Variable 1.2 mph - N/A Rain Light Rain
6:30 AM 48.2 °F 46.4 °F 93% 30.01 in 6.2 mi Calm Calm - N/A   Mostly Cloudy
7:00 AM 49 °F 47 °F 90% 30.02 in 6 mi Calm Calm - - Rain Light Rain
7:00 AM 48.2 °F 46.4 °F 93% 30.01 in 6.2 mi Variable 1.2 mph - N/A Rain Light Rain
7:30 AM 48.2 °F 46.4 °F 93% 29.98 in 6.2 mi Variable 1.2 mph - N/A Rain Light Rain
8:00 AM 50.0 °F 48.2 °F 94% 29.98 in 6.2 mi Variable 2.3 mph - N/A   Mostly Cloudy
8:30 AM 50.0 °F 48.2 °F 94% 29.98 in 5.0 mi East 4.6 mph - N/A Rain Light Rain
9:00 AM 50.0 °F 48.2 °F 94% 29.98 in 4.3 mi ESE 5.8 mph - N/A Rain Light Rain
9:30 AM 50.0 °F 50.0 °F 100% 29.98 in 4.3 mi East 5.8 mph - N/A Rain Light Rain
10:00 AM 51 °F 49 °F 92% 29.98 in 4 mi East 8.9 mph - - Rain Light Rain
10:00 AM 50.0 °F 50.0 °F 100% 29.95 in 4.3 mi East 8.1 mph - N/A Rain Light Rain
10:30 AM 50.0 °F 50.0 °F 100% 29.95 in 5.0 mi East 6.9 mph - N/A Rain Light Rain
11:00 AM 51.8 °F 50.0 °F 94% 29.95 in 4.3 mi ESE 8.1 mph - N/A Rain Light Rain
11:30 AM 51.8 °F 50.0 °F 94% 29.92 in 4.3 mi East 9.2 mph - N/A Rain Light Rain
12:00 PM 51.8 °F 50.0 °F 94% 29.92 in 4.3 mi East 8.1 mph - N/A Rain Light Rain
12:30 PM 51.8 °F 50.0 °F 94% 29.92 in 5.0 mi ESE 8.1 mph - N/A Rain Light Rain
1:00 PM 52 °F 51 °F 93% 29.91 in 6 mi ESE 8.9 mph - - Rain Light Rain
1:00 PM 51.8 °F 50.0 °F 94% 29.89 in 6.2 mi ESE 9.2 mph - N/A   Mostly Cloudy
1:30 PM 51.8 °F 50.0 °F 94% 29.89 in 6.2 mi ESE 8.1 mph - N/A   Mostly Cloudy
2:00 PM 51.8 °F 50.0 °F 94% 29.89 in 5.0 mi ESE 6.9 mph - N/A Rain Light Rain
2:30 PM 51.8 °F 50.0 °F 94% 29.86 in 5.0 mi ESE 8.1 mph - N/A Rain Light Rain
3:00 PM 53.6 °F 50.0 °F 88% 29.86 in 5.0 mi ESE 8.1 mph - N/A Rain Light Rain
3:30 PM 53.6 °F 50.0 °F 88% 29.86 in 3.7 mi SE 8.1 mph - N/A Rain Light Rain
4:00 PM 52 °F 50 °F 90% 29.87 in 4 mi SE 8.9 mph - - Rain Light Rain
4:00 PM 51.8 °F 50.0 °F 94% 29.86 in 4.3 mi SE 9.2 mph - N/A Rain Light Rain
4:30 PM 51.8 °F 50.0 °F 94% 29.83 in 3.7 mi West 6.9 mph - N/A Rain Light Rain
5:00 PM 51.8 °F 50.0 °F 94% 29.83 in 3.7 mi ESE 6.9 mph - N/A Rain Light Rain
5:30 PM 51.8 °F 50.0 °F 94% 29.83 in 3.1 mi SE 10.4 mph - N/A Rain Light Rain
6:00 PM 51.8 °F 50.0 °F 94% 29.80 in 3.1 mi ESE 9.2 mph - N/A Rain Light Rain
6:30 PM 51.8 °F 50.0 °F 94% 29.80 in 3.7 mi ESE 8.1 mph - N/A Rain Light Rain
7:00 PM 52 °F 51 °F 93% 29.82 in 4 mi SE 6.7 mph - - Rain Rain
7:00 PM 51.8 °F 50.0 °F 94% 29.80 in 3.7 mi SE 6.9 mph - N/A Rain Rain
7:30 PM 51.8 °F 50.0 °F 94% 29.80 in 3.7 mi ESE 6.9 mph - N/A Rain Light Rain
8:00 PM 51.8 °F 51.8 °F 100% 29.80 in 4.3 mi SE 9.2 mph 24.2 mph N/A Rain Light Rain
8:30 PM 53.6 °F 51.8 °F 94% 29.80 in 4.3 mi SE 9.2 mph - N/A Rain Light Rain
9:00 PM 51.8 °F 51.8 °F 100% 29.80 in 4.3 mi SE 6.9 mph - N/A Rain Light Rain
9:30 PM 53.6 °F 51.8 °F 94% 29.80 in 4.3 mi Variable 5.8 mph - N/A Rain Light Rain
10:00 PM 53 °F 51 °F 92% 29.80 in 4 mi SSE 6.7 mph - - Rain Light Rain
10:00 PM 53.6 °F 51.8 °F 94% 29.77 in 4.3 mi SSE 6.9 mph - N/A Rain Light Rain
10:30 PM 53.6 °F 51.8 °F 94% 29.77 in 4.3 mi SSE 6.9 mph - N/A Rain Light Rain
11:00 PM 51.8 °F 50.0 °F 94% 29.77 in 4.3 mi SE 6.9 mph - N/A Rain Light Rain
11:30 PM 51.8 °F 51.8 °F 100% 29.77 in 4.3 mi SSE 8.1 mph - N/A Rain Light Rain